Clermont County, Batavia, OH

6:39 AM EST on December 08, 2019 (GMT -0500)
Clermont County, Batavia

Weather History for KI69 - September, 2019

Change the Weather History Date:

Monday, September 9, 2019

  Actual Average (KLUK) Record (KLUK)
Temperature  
Mean Temperature 71 °F -  
Max Temperature 83 °F 82 °F 98 °F (1964)
Min Temperature 59 °F 61 °F 33 °F (1996)
Cooling Degree Days 6    
Growing Degree Days 21 (Base 50)    
Moisture  
Dew Point 63 °F    
Average Humidity 77    
Maximum Humidity 99    
Minimum Humidity 52    
Precipitation  
Precipitation 0.00 in - - ()
Sea Level Pressure  
Sea Level Pressure 30.20 in    
Wind  
Wind Speed 1 mph (ESE)    
Max Wind Speed 7 mph    
Max Gust Speed -    
Visibility 10 miles    
Events      
Averages and records for this station are not official NWS values.
T = Trace of Precipitation, MM = Missing Value Source: NWS Daily Summary

Daily Weather History Graph

Daily Weather History Graph

Search for Another Location

Airport or City:

Astronomy

Sep. 09, 2019 Rise Set
Actual Time 7:12 AM EDT 7:55 PM EDT
Civil Twilight 6:45 AM EDT 8:22 PM EDT
Nautical Twilight 6:13 AM EDT 8:53 PM EDT
Astronomical Twilight 5:40 AM EDT 9:26 PM EDT
Moon 5:47 PM EDT (9/9) 2:45 AM EDT (9/9)
Length of Visible Light 13h 36m
Length of Day
12h 42m
Waxing Gibbous, 83% of the Moon is Illuminated
Sep 9
Waxing Gibbous
Sep 14
Full
Sep 21
Last Quarter
Sep 28
New
Oct 5
First Quarter

Hourly Weather History & Observations

Time (EDT) Temp. Heat Index Dew Point Humidity Pressure Visibility Wind Dir Wind Speed Gust Speed Precip Events Conditions
12:15 AM 64.4 °F - 61.5 °F 90% 30.16 in 10.0 mi Calm Calm - N/A   Clear
12:35 AM 64.6 °F - 61.2 °F 89% 30.16 in 10.0 mi Calm Calm - N/A   Clear
12:55 AM 63.1 °F - 61.2 °F 93% 30.16 in 10.0 mi Calm Calm - N/A   Clear
1:18 AM 63.0 °F - 61.0 °F 93% 30.16 in 10.0 mi Calm Calm - N/A   Clear
1:36 AM 63.3 °F - 61.2 °F 93% 30.16 in 10.0 mi Calm Calm - N/A   Clear
1:55 AM 63.1 °F - 60.8 °F 92% 30.16 in 10.0 mi Calm Calm - N/A   Clear
2:15 AM 63.0 °F - 60.8 °F 93% 30.17 in 10.0 mi Calm Calm - N/A   Clear
2:35 AM 62.6 °F - 60.6 °F 93% 30.17 in 10.0 mi Calm Calm - N/A   Clear
2:58 AM 62.4 °F - 60.4 °F 93% 30.17 in 10.0 mi Calm Calm - N/A   Mostly Cloudy
3:16 AM 61.3 °F - 60.1 °F 96% 30.17 in 10.0 mi Calm Calm - N/A   Mostly Cloudy
3:35 AM 61.2 °F - 60.4 °F 97% 30.16 in 10.0 mi Calm Calm - N/A   Scattered Clouds
3:55 AM 61.3 °F - 60.8 °F 98% 30.16 in 10.0 mi Calm Calm - N/A   Clear
4:15 AM 61.5 °F - 60.4 °F 96% 30.16 in 10.0 mi Calm Calm - N/A   Clear
4:38 AM 60.8 °F - 59.9 °F 97% 30.16 in 10.0 mi Calm Calm - N/A   Clear
4:56 AM 60.4 °F - 59.9 °F 98% 30.16 in 10.0 mi Calm Calm - N/A   Clear
5:15 AM 60.4 °F - 59.9 °F 98% 30.16 in 10.0 mi Calm Calm - N/A   Clear
5:35 AM 60.3 °F - 59.7 °F 98% 30.15 in 10.0 mi East 3.5 mph - N/A   Clear
5:59 AM 60.3 °F - 59.9 °F 99% 30.16 in 10.0 mi Calm Calm - N/A   Clear
6:18 AM 60.1 °F - 59.2 °F 97% 30.16 in 10.0 mi Calm Calm - N/A   Clear
6:36 AM 59.5 °F - 58.8 °F 97% 30.17 in 10.0 mi Calm Calm - N/A   Clear
7:15 AM 59.9 °F - 59.2 °F 97% 30.18 in 10.0 mi ESE 3.5 mph - N/A   Clear
7:39 AM 59.0 °F - 58.5 °F 98% 30.19 in 5.0 mi Calm Calm - N/A   Clear
7:57 AM 59.5 °F - 59.2 °F 99% 30.19 in 10.0 mi Calm Calm - N/A   Clear
8:16 AM 61.2 °F - 60.6 °F 98% 30.21 in 10.0 mi Calm Calm - N/A   Clear
8:35 AM 62.4 °F - 61.2 °F 96% 30.21 in 10.0 mi Calm Calm - N/A   Clear
8:55 AM 63.5 °F - 61.0 °F 91% 30.22 in 10.0 mi Calm Calm - N/A   Clear
9:19 AM 65.3 °F - 61.2 °F 86% 30.23 in 10.0 mi Calm Calm - N/A   Clear
9:37 AM 66.6 °F - 61.5 °F 84% 30.24 in 10.0 mi Calm Calm - N/A   Clear
9:55 AM 68.5 °F - 62.2 °F 80% 30.24 in 10.0 mi Calm Calm - N/A   Clear
10:15 AM 70.2 °F - 63.1 °F 78% 30.24 in 10.0 mi ESE 3.5 mph - N/A   Clear
10:35 AM 71.6 °F - 63.0 °F 74% 30.24 in 10.0 mi ESE 3.5 mph - N/A   Clear
10:59 AM 73.6 °F - 63.3 °F 70% 30.24 in 10.0 mi ESE 4.6 mph - N/A   Clear
11:17 AM 74.5 °F - 62.4 °F 66% 30.24 in 10.0 mi Calm Calm - N/A   Clear
11:35 AM 76.5 °F - 63.7 °F 64% 30.24 in 10.0 mi Calm Calm - N/A   Clear
11:56 AM 77.0 °F - 63.3 °F 63% 30.24 in 10.0 mi ENE 3.5 mph - N/A   Clear
12:15 PM 77.7 °F - 62.6 °F 60% 30.23 in 10.0 mi Calm Calm - N/A   Clear
12:39 PM 79.0 °F - 61.3 °F 55% 30.23 in 10.0 mi Calm Calm - N/A   Clear
12:57 PM 78.6 °F - 60.8 °F 54% 30.23 in 10.0 mi Calm Calm - N/A   Clear
1:15 PM 79.3 °F - 63.3 °F 58% 30.23 in 10.0 mi SE 5.8 mph - N/A   Clear
1:35 PM 79.9 °F - 63.1 °F 56% 30.23 in 10.0 mi South 3.5 mph - N/A   Clear
1:56 PM 80.8 °F 82.2 °F 63.7 °F 56% 30.22 in 10.0 mi Calm Calm - N/A   Scattered Clouds
2:19 PM 81.0 °F 82.3 °F 63.5 °F 55% 30.22 in 10.0 mi East 5.8 mph - N/A   Clear
2:37 PM 81.3 °F 82.9 °F 64.2 °F 56% 30.22 in 10.0 mi South 3.5 mph - N/A   Clear
2:55 PM 81.3 °F 82.7 °F 63.5 °F 55% 30.21 in 10.0 mi SSE 6.9 mph - N/A   Clear
3:15 PM 82.0 °F 83.6 °F 64.4 °F 55% 30.21 in 10.0 mi SE 5.8 mph - N/A   Clear
3:35 PM 82.0 °F 83.1 °F 63.0 °F 52% 30.20 in 10.0 mi ESE 5.8 mph - N/A   Clear
3:59 PM 82.9 °F 84.4 °F 64.2 °F 53% 30.20 in 10.0 mi Calm Calm - N/A   Clear
4:17 PM 82.8 °F 84.2 °F 64.2 °F 53% 30.20 in 10.0 mi East 3.5 mph - N/A   Clear
4:35 PM 82.6 °F 84.1 °F 64.6 °F 54% 30.19 in 10.0 mi Calm Calm - N/A   Clear
4:55 PM 82.6 °F 84.1 °F 64.2 °F 54% 30.19 in 10.0 mi Calm Calm - N/A   Clear
5:15 PM 83.1 °F 84.4 °F 63.9 °F 52% 30.19 in 10.0 mi Calm Calm - N/A   Clear
5:38 PM 82.8 °F 84.0 °F 63.5 °F 52% 30.19 in 10.0 mi SE 3.5 mph - N/A   Clear
5:57 PM 82.6 °F 83.9 °F 64.0 °F 53% 30.19 in 10.0 mi Calm Calm - N/A   Clear
6:15 PM 82.2 °F 83.8 °F 64.6 °F 55% 30.19 in 10.0 mi ESE 3.5 mph - N/A   Clear
6:35 PM 81.7 °F 83.5 °F 64.9 °F 57% 30.19 in 10.0 mi Calm Calm - N/A   Clear
6:55 PM 81.5 °F 83.3 °F 65.1 °F 57% 30.18 in 10.0 mi Calm Calm - N/A   Clear
7:18 PM 79.5 °F - 65.1 °F 61% 30.18 in 10.0 mi East 3.5 mph - N/A   Clear
7:36 PM 78.4 °F - 65.7 °F 65% 30.18 in 10.0 mi Calm Calm - N/A   Clear
7:55 PM 77.2 °F - 65.8 °F 68% 30.18 in 10.0 mi East 3.5 mph - N/A   Clear
8:15 PM 76.1 °F - 66.2 °F 71% 30.19 in 10.0 mi Calm Calm - N/A   Clear
8:35 PM 74.5 °F - 66.2 °F 75% 30.19 in 10.0 mi Calm Calm - N/A   Clear
8:58 PM 73.9 °F - 66.2 °F 77% 30.20 in 10.0 mi East 3.5 mph - N/A   Clear
9:16 PM 73.9 °F - 65.8 °F 76% 30.20 in 10.0 mi ESE 3.5 mph - N/A   Clear
9:36 PM 73.4 °F - 65.7 °F 77% 30.20 in 10.0 mi ESE 3.5 mph - N/A   Clear
9:55 PM 72.9 °F - 65.7 °F 78% 30.21 in 10.0 mi Calm Calm - N/A   Clear
10:15 PM 71.1 °F - 66.0 °F 84% 30.21 in 10.0 mi Calm Calm - N/A   Clear
10:38 PM 71.8 °F - 65.5 °F 80% 30.22 in 10.0 mi ESE 3.5 mph - N/A   Clear
10:56 PM 70.2 °F - 65.5 °F 85% 30.22 in 10.0 mi Calm Calm - N/A   Clear
11:15 PM 70.5 °F - 65.3 °F 83% 30.22 in 10.0 mi ESE 4.6 mph - N/A   Clear
11:35 PM 69.8 °F - 65.3 °F 86% 30.22 in 10.0 mi Calm Calm - N/A   Clear